GEFSNE_500_meanwind_168.txt.gz
Wind_Speed
14 15 16 17 18 19 19 20 21 21 21 22 24 24 24 24 24 25 25 25 25 26 26 27 28 28 29 28 27 27 27 28 29 29 30 31 31 31
15 15 16 17 19 19 20 21 22 23 22 23 24 25 25 25 25 25 24 24 26 27 27 28 28 28 28 28 29 29 29 30 30 31 31 32 33 34
15 16 16 17 18 19 21 22 23 23 23 23 25 26 26 26 26 26 25 25 26 26 28 28 28 28 28 29 29 29 30 31 31 32 33 34 34 35
16 16 17 18 18 19 20 21 22 23 24 23 24 25 26 26 26 26 26 26 26 27 28 28 29 29 29 29 29 30 31 31 32 33 34 36 36 37
16 16 17 18 19 20 20 21 22 23 23 24 24 25 25 25 25 26 26 27 27 28 28 29 29 29 30 30 31 31 32 33 34 35 36 37 38 38
17 18 19 20 21 22 22 23 23 24 24 24 24 24 25 24 25 26 27 28 28 28 28 29 30 30 31 31 32 32 33 34 35 36 37 37 38 38
18 19 20 20 21 22 22 23 23 23 24 24 24 24 24 25 25 27 27 28 29 29 30 30 31 32 33 33 34 34 35 36 36 37 37 38 38 38
19 20 21 22 22 22 22 23 24 24 24 24 24 24 25 26 27 28 28 28 29 30 31 32 32 32 33 34 34 34 35 35 36 36 37 37 38 39
20 20 21 22 22 23 23 23 23 24 24 24 25 25 26 27 27 28 29 29 30 31 32 32 32 32 33 34 35 35 36 37 37 37 37 38 39 40
21 22 22 22 23 23 23 24 24 25 25 26 26 27 27 27 28 28 29 30 30 31 32 32 33 34 34 35 35 36 37 38 39 39 40 40 40 40
22 22 22 23 23 24 24 25 26 26 27 27 28 28 29 29 30 31 31 31 32 32 33 34 34 34 35 36 37 37 38 38 38 38 39 39 39 39
23 24 24 25 25 26 26 26 27 27 28 29 30 30 30 31 32 33 33 33 33 34 34 35 35 36 36 36 37 37 37 37 38 38 39 39 38 39
24 25 25 26 27 27 27 28 28 29 30 30 31 31 32 33 34 34 34 35 35 35 36 36 36 36 37 36 36 37 37 37 37 37 38 39 38 38
25 26 27 27 28 29 29 29 30 31 31 31 32 33 34 34 34 35 35 36 36 36 36 36 35 36 36 36 36 36 36 36 36 37 37 37 37 36
27 28 28 29 30 31 31 31 31 32 32 33 33 34 35 35 35 35 36 36 36 36 36 35 35 35 35 35 35 35 35 35 35 35 34 34 34 34
30 30 31 31 31 32 32 32 33 33 34 34 35 36 36 36 36 36 36 35 35 35 35 35 34 34 34 34 34 34 34 34 33 33 32 32 32 31
32 32 33 33 32 33 33 33 34 35 35 36 36 36 36 36 36 36 35 35 35 35 34 34 33 34 33 33 33 33 32 31 31 31 31 31 30 30
33 33 33 34 33 33 34 34 35 35 35 35 35 36 36 36 35 35 35 34 34 34 34 34 34 33 33 33 32 31 31 31 31 31 31 30 29 29
34 34 34 33 33 34 34 35 35 35 35 35 35 35 35 35 34 34 34 34 33 33 33 33 33 33 32 32 31 30 30 30 30 30 29 29 28 28
35 34 34 34 34 34 34 35 35 34 34 35 35 34 34 34 34 33 33 33 33 33 33 33 32 32 32 31 31 30 30 29 29 29 28 28 28 27
35 35 35 35 34 34 34 34 34 34 34 34 34 33 33 33 33 32 33 33 32 32 31 31 31 31 31 31 29 29 30 30 29 28 28 27 26 25
34 35 35 35 34 34 34 34 34 34 33 33 32 33 32 32 32 32 32 32 32 31 31 31 31 31 30 30 30 30 30 29 29 28 27 26 24 23
35 35 35 34 34 34 34 34 33 32 32 32 33 33 32 32 32 32 31 31 32 31 31 31 31 31 31 30 30 30 29 28 28 27 26 25 24 24

GEFSNE_500_meanwind_174.txt.gz
Wind_Speed
14 14 15 15 16 17 17 18 19 19 19 20 21 21 22 23 23 24 23 22 23 23 24 25 26 25 25 26 27 27 28 28 28 28 29 29 30 30
15 16 16 17 17 18 18 18 18 19 19 20 21 22 23 24 25 24 24 24 24 24 24 25 25 26 27 27 27 28 29 29 30 30 30 30 31 32
16 16 17 18 18 18 18 18 19 19 20 21 22 24 25 25 24 25 25 25 25 25 25 26 26 26 27 28 29 29 29 31 31 30 31 32 33 35
16 17 18 18 18 19 19 19 20 20 21 21 22 24 24 25 25 25 25 25 25 25 25 27 27 28 29 29 29 30 31 31 31 31 32 33 34 35
17 17 18 18 19 19 20 20 21 21 22 23 23 24 24 24 25 25 25 25 25 25 27 27 28 29 30 30 30 30 31 32 33 33 34 34 35 35
18 18 18 19 19 20 20 20 21 22 23 23 23 24 24 24 25 25 25 25 26 27 27 28 29 29 30 31 32 32 33 34 34 34 34 34 36 36
19 19 19 19 20 21 21 21 22 23 23 23 24 24 24 25 25 25 26 26 27 28 28 29 30 31 31 32 32 33 34 35 36 36 37 36 37 37
20 20 20 20 21 21 22 23 23 24 24 24 24 25 25 25 26 26 27 27 28 29 30 31 31 32 33 33 34 34 35 35 36 37 38 39 39 39
21 21 21 22 23 23 23 24 24 25 25 25 25 25 26 27 27 28 28 28 29 30 31 31 32 32 33 33 33 34 35 35 36 37 38 38 39 39
20 21 22 22 23 23 24 25 25 26 27 27 27 27 28 28 29 29 29 30 31 31 32 32 33 33 33 33 33 34 34 34 35 36 37 37 38 38
22 22 23 23 24 24 25 26 27 28 29 29 29 29 29 30 30 31 31 32 33 33 34 34 34 34 34 34 34 34 34 34 35 35 35 36 36 37
23 23 23 24 24 25 26 27 28 29 30 30 30 31 31 31 32 33 33 34 34 34 34 35 35 35 34 34 34 35 35 36 36 36 36 36 36 36
24 24 25 26 26 27 28 29 29 30 30 30 31 31 32 33 33 34 34 35 35 35 35 35 36 36 35 35 36 36 36 36 36 36 36 35 36 36
26 26 27 28 28 29 29 30 30 30 31 32 32 33 33 34 35 35 36 36 35 36 35 36 36 36 36 36 36 35 35 34 35 35 35 35 35 34
28 28 29 29 30 30 31 31 32 32 33 33 34 34 34 35 35 36 36 36 36 36 36 36 36 36 35 35 35 35 34 34 34 34 35 35 34 33
30 30 30 31 32 32 32 33 33 33 33 34 34 35 35 35 36 36 37 36 36 36 36 36 36 36 36 35 35 35 34 34 35 34 34 33 32 31
31 31 32 33 33 33 34 34 34 34 35 35 36 36 36 36 36 36 36 36 36 36 36 35 35 35 34 34 34 34 34 34 34 33 33 32 31 31
32 33 33 34 34 34 35 35 35 36 36 36 36 36 36 36 36 36 35 35 35 35 34 34 34 34 34 33 33 33 33 33 32 32 31 31 31 31
34 34 35 35 36 36 36 36 35 35 35 35 35 35 35 35 35 35 35 35 34 34 34 34 34 33 33 32 32 32 32 32 32 31 30 30 30 30
36 36 36 37 37 36 36 35 35 35 35 35 35 35 35 35 35 35 34 34 34 33 33 33 33 32 32 32 32 32 31 31 31 31 30 29 29 29
36 36 37 37 37 36 36 35 35 35 34 34 34 35 34 34 34 34 34 34 33 33 32 32 32 32 32 32 32 32 31 31 30 30 30 29 29 28
36 36 37 37 37 36 36 35 35 35 35 34 34 34 33 33 33 33 33 33 33 33 33 33 33 33 33 32 31 31 31 30 29 29 28 28 28 28
37 37 38 37 37 37 36 35 35 35 34 34 34 34 34 33 33 33 33 33 33 33 33 33 33 32 32 31 31 30 30 29 28 28 27 27 27 27

GEFSNE_500_meanwind_180.txt.gz
Wind_Speed
14 15 15 16 16 17 17 17 18 17 18 18 18 19 20 20 20 21 21 21 21 22 22 22 23 23 24 24 24 24 24 24 25 26 26 27 28 29
15 16 16 17 17 18 18 18 19 19 19 20 19 20 20 20 21 21 22 23 23 23 23 23 23 23 23 24 25 25 26 26 26 27 27 28 29 30
16 17 17 18 19 19 19 19 20 20 19 19 19 20 21 21 21 22 23 23 23 23 23 23 23 24 24 24 25 26 27 27 27 28 28 29 30 30
17 18 18 19 19 19 20 20 21 21 21 21 21 21 22 22 23 23 24 24 24 24 24 24 24 24 25 26 26 27 27 28 29 29 30 30 30 31
18 19 19 19 20 20 20 21 21 22 21 21 22 22 23 23 24 24 25 25 25 25 25 25 25 25 26 27 27 28 28 29 30 31 31 31 32 32
18 19 19 19 20 20 20 21 21 21 22 22 23 24 24 25 25 25 25 25 25 25 25 26 26 27 27 28 29 29 29 30 30 30 31 32 32 33
19 20 21 21 21 21 21 21 22 22 23 23 24 25 25 26 26 26 25 25 26 26 26 27 28 28 29 30 30 30 31 32 32 32 32 32 33 33
20 20 21 21 21 21 21 22 22 23 24 24 25 25 25 26 26 25 26 26 27 27 27 28 28 29 30 31 31 31 32 32 33 33 33 33 34 34
21 21 22 22 22 22 22 22 23 24 24 25 26 26 27 27 27 27 28 29 29 29 29 29 30 31 31 31 32 32 33 34 34 34 34 34 35 35
22 23 23 23 23 23 24 24 25 25 26 27 27 28 28 29 30 30 31 31 31 31 31 31 31 32 32 32 33 34 34 35 35 35 34 34 34 34
24 24 24 24 24 25 26 26 27 28 28 28 29 29 30 31 31 32 32 33 33 33 33 33 33 33 33 33 33 34 34 34 35 34 33 34 35 35
24 24 25 26 26 26 26 26 27 28 29 30 31 31 32 32 33 33 34 34 34 34 34 34 34 34 34 34 35 35 35 35 35 34 34 34 34 34
24 25 25 26 27 27 27 28 29 29 30 31 31 32 32 33 33 34 34 34 34 34 35 35 35 35 35 36 35 35 36 35 35 34 34 34 33 33
26 26 27 27 28 28 29 30 30 31 31 31 32 32 33 34 34 35 35 35 36 36 36 36 36 36 36 36 36 36 35 35 34 35 34 34 33 33
27 28 29 30 30 30 31 32 32 32 32 33 33 34 34 35 35 36 36 36 36 36 36 36 36 36 36 36 35 35 35 34 34 34 33 33 33 33
29 30 31 31 31 32 32 33 33 34 34 34 35 35 35 36 36 36 36 36 36 36 36 36 36 35 35 35 35 34 34 33 33 33 33 33 33 33
32 31 32 32 33 33 34 34 34 35 35 36 36 36 36 36 36 35 35 35 35 35 35 35 35 34 34 34 34 34 33 33 33 33 33 33 33 32
33 33 34 34 34 35 35 35 36 36 37 37 37 37 36 36 36 35 35 34 34 34 34 34 34 33 34 33 33 33 33 33 32 32 33 32 32 32
35 35 35 35 36 36 36 37 37 37 37 37 37 37 37 36 36 35 35 35 34 34 34 33 33 33 33 32 32 33 33 33 33 33 32 32 32 31
36 36 36 36 37 37 37 37 37 37 37 37 37 37 36 36 36 36 35 35 34 34 34 33 33 33 33 33 33 33 33 32 32 32 32 32 31 30
36 36 37 37 37 37 37 37 37 37 38 38 37 37 36 36 37 36 35 35 34 34 34 33 33 33 33 33 33 32 32 32 32 31 31 30 29 29
36 37 37 38 38 38 38 38 38 38 38 37 37 36 36 36 36 36 35 35 35 34 34 33 33 33 33 33 33 32 32 32 31 30 30 30 29 28
37 37 38 38 38 38 38 38 38 38 37 37 37 36 36 36 36 36 36 35 35 34 34 34 33 33 33 32 32 32 31 31 30 28 28 28 28 28

GEFSNE_500_meanwind_186.txt.gz
Wind_Speed
13 13 13 14 14 14 14 14 15 15 15 16 17 18 18 18 18 18 19 19 20 21 21 22 22 22 23 23 24 24 24 25 25 25 26 26 26 27
15 15 15 15 15 16 16 16 16 17 17 18 18 19 19 19 19 20 20 20 21 21 22 23 24 24 25 25 24 24 24 25 26 26 26 26 27 28
16 16 16 16 17 17 17 17 17 18 18 19 19 19 20 20 20 20 20 20 20 21 22 23 24 25 25 24 25 25 25 25 26 26 27 27 27 28
15 16 17 17 17 18 17 18 18 19 20 20 20 21 21 21 22 21 21 21 22 22 23 23 24 24 24 24 24 25 26 26 27 27 28 28 28 29
16 17 17 18 18 18 19 19 19 19 20 20 21 22 22 22 22 22 22 23 23 23 24 24 24 23 24 24 25 26 27 27 28 28 29 29 29 30
17 17 18 18 18 18 18 19 19 19 20 20 21 22 22 23 23 23 23 24 23 24 24 25 25 25 25 26 27 27 27 28 28 29 29 29 30 30
18 18 18 18 18 19 19 19 20 20 21 22 22 22 22 23 23 23 23 24 24 25 25 25 25 26 27 28 28 29 29 29 29 29 30 30 31 32
19 19 19 19 19 20 20 20 21 22 22 22 22 22 23 24 24 25 25 25 25 25 26 26 27 28 28 29 30 30 30 30 30 31 31 31 32 32
19 20 20 20 20 20 21 21 22 22 23 23 24 24 24 25 25 26 26 27 26 27 28 28 29 30 31 31 31 32 32 32 32 32 32 32 32 33
21 20 20 20 20 21 21 22 23 24 24 24 24 25 26 26 27 27 27 28 28 29 30 30 31 31 32 32 32 33 33 33 33 34 33 33 33 34
21 21 22 22 22 23 24 24 25 25 26 26 26 26 27 27 27 28 29 29 30 30 31 32 32 33 33 33 34 34 35 34 34 34 34 35 35 35
22 22 22 23 24 24 24 25 26 26 26 26 26 27 27 28 29 30 30 31 31 32 32 33 34 34 34 35 35 35 35 35 35 35 35 35 35 35
23 23 23 24 24 24 24 25 25 26 26 26 27 28 29 29 30 30 31 32 32 33 33 34 35 35 35 35 35 35 35 35 35 35 35 35 35 35
24 24 24 24 24 25 25 25 25 26 27 27 28 29 30 31 31 32 33 34 34 34 34 34 35 35 35 35 34 34 34 34 35 35 35 35 35 34
25 25 25 26 26 26 26 27 27 27 28 28 29 30 31 32 33 33 34 35 35 35 35 35 35 35 35 35 35 34 34 34 34 35 35 34 34 34
27 27 28 28 28 28 28 29 29 29 29 30 31 31 32 33 33 34 35 35 35 35 36 35 36 35 35 35 35 35 34 34 34 34 34 34 34 34
28 29 29 29 29 30 30 30 30 31 31 31 32 32 33 33 34 34 35 35 35 35 35 36 36 36 35 35 35 35 35 34 34 34 34 34 34 34
30 30 30 30 30 31 31 31 32 32 32 33 33 34 34 34 35 35 35 35 35 35 35 36 36 35 35 35 35 35 35 35 35 35 34 34 34 34
31 31 31 31 31 32 32 32 33 33 33 33 34 34 34 35 35 35 35 35 35 35 35 35 35 35 35 35 35 35 35 35 35 34 33 33 33 33
32 32 33 33 33 33 33 33 33 34 33 33 34 34 35 35 35 35 36 35 35 35 35 35 35 34 34 33 33 34 35 35 34 34 34 33 33 33
34 34 34 34 34 34 34 34 34 34 34 34 35 35 36 36 36 36 36 36 35 35 35 35 35 34 34 34 35 35 35 35 34 34 34 33 32 31
35 35 35 35 35 35 34 35 35 35 35 35 35 36 37 37 36 36 36 36 36 35 35 35 35 35 35 35 35 35 35 34 34 33 32 31 30 30
35 35 36 36 36 36 35 35 35 36 36 37 37 37 37 37 37 36 36 36 36 35 35 35 35 35 35 35 35 35 34 33 32 32 31 31 30 30

GEFSNE_500_meanwind_192.txt.gz
Wind_Speed
14 15 16 16 17 17 18 18 19 19 19 20 20 20 20 20 20 20 20 20 21 21 21 22 23 23 24 25 25 26 26 26 26 26 27 26 26 26
15 16 16 17 17 18 19 20 20 20 21 21 22 22 22 22 22 21 22 22 22 22 23 23 24 25 25 25 25 26 27 28 28 28 28 27 27 27
15 16 17 17 18 19 20 20 21 21 21 22 22 22 23 23 23 23 23 22 23 23 24 25 25 26 26 26 26 27 27 27 28 29 28 28 28 28
17 17 18 18 19 20 20 21 22 23 23 23 23 24 24 24 24 24 24 24 24 25 26 26 26 26 27 27 27 27 28 28 28 29 29 29 29 30
18 18 19 20 20 21 21 22 23 23 24 24 24 25 24 24 25 25 25 25 25 26 26 27 27 27 27 27 28 29 28 29 29 29 29 30 30 31
20 20 21 21 21 22 22 22 23 24 25 25 24 24 24 25 25 25 26 26 26 27 27 28 28 28 28 29 29 29 29 30 30 31 31 31 31 32
22 22 22 22 22 23 23 23 23 23 24 24 24 24 25 25 26 26 26 26 27 27 28 28 29 29 29 30 30 30 31 31 32 32 32 32 33 33
23 22 22 22 22 23 23 23 23 24 24 24 25 25 26 26 27 27 27 27 27 28 28 29 29 30 31 31 31 31 32 32 33 33 33 34 34 34
23 23 22 22 23 23 24 24 24 25 26 26 26 26 27 27 28 28 28 28 28 29 30 30 31 31 31 31 32 32 33 33 34 34 34 34 34 35
23 23 23 24 24 24 25 25 25 26 26 27 27 27 28 29 28 28 29 29 29 30 30 29 30 31 31 32 33 33 34 34 34 35 35 35 36 36
24 24 24 25 25 26 26 27 27 27 27 28 29 28 29 29 29 30 30 30 30 30 31 31 31 32 33 33 34 34 35 35 35 36 36 36 36 36
24 24 25 26 26 26 27 27 27 27 28 28 28 28 29 29 29 30 30 30 30 31 32 32 33 33 33 34 35 35 35 36 36 36 36 37 37 37
25 25 25 26 26 27 27 27 27 27 28 29 29 30 30 30 30 30 30 31 32 32 32 33 34 35 35 35 36 36 36 36 37 37 37 37 37 38
25 25 26 27 27 28 28 28 28 28 28 28 29 29 30 30 30 30 31 32 33 33 34 34 35 35 36 36 36 37 37 37 37 37 37 37 37 37
26 26 27 27 28 28 29 29 29 29 29 30 30 30 31 31 31 31 32 33 34 34 35 35 36 36 36 37 37 37 37 37 37 37 37 37 37 37
28 28 28 29 29 29 29 29 30 30 31 31 31 31 32 32 33 34 34 35 35 35 36 36 37 37 37 37 37 37 37 37 37 37 37 37 37 37
29 30 30 30 30 30 31 31 31 31 32 32 32 33 34 34 35 35 35 36 36 37 37 38 39 39 38 37 37 37 37 37 37 36 36 36 36 35
31 31 31 31 32 32 33 33 33 33 33 33 34 34 35 36 36 37 37 37 38 38 38 38 38 38 38 38 38 38 37 37 37 37 36 35 35 34
33 33 33 33 33 34 34 34 34 34 35 35 35 36 36 37 37 37 37 38 38 37 37 38 38 37 37 37 37 37 37 37 36 36 36 35 35 34
34 34 34 34 34 34 35 35 36 36 36 37 37 37 37 37 37 37 37 37 37 37 37 37 37 36 36 36 36 36 37 36 36 35 35 35 35 34
36 35 35 35 35 36 36 37 38 38 38 38 38 38 37 37 37 37 37 37 37 37 36 36 36 36 36 36 36 35 35 35 35 35 34 34 34 34
36 36 36 36 36 37 38 38 38 38 39 39 38 38 38 38 37 37 37 37 37 36 36 36 36 36 36 36 35 35 35 34 34 34 34 33 33 32
37 38 38 37 38 38 39 39 38 38 38 38 38 38 38 37 37 36 36 36 36 36 36 36 37 37 37 36 36 35 34 33 33 33 33 33 32 32

GEFSNE_500_meanwind_198.txt.gz
Wind_Speed
14 15 16 16 16 16 16 16 17 17 18 19 20 21 21 21 21 21 21 21 22 22 22 23 23 24 24 24 24 24 24 25 25 25 25 25 26 26
14 16 17 18 18 18 17 17 17 17 18 19 20 21 22 22 22 22 23 23 23 24 24 24 24 25 25 25 25 25 25 26 26 26 26 25 26 27
16 16 17 18 18 18 19 19 19 19 20 20 21 22 22 23 23 24 24 24 25 25 26 26 26 26 26 26 27 27 27 27 27 27 26 27 27 28
18 18 18 18 19 20 20 20 21 21 22 22 23 23 23 24 24 25 25 26 26 27 28 28 28 28 28 28 28 28 28 28 28 28 28 29 30 30
19 19 20 21 21 22 22 22 22 23 23 24 24 25 25 25 25 26 27 27 28 28 28 29 29 29 29 29 29 29 29 29 30 30 30 31 31 30
21 21 22 22 23 23 24 24 24 24 25 25 25 26 26 26 27 27 27 27 27 28 29 29 29 29 29 29 29 30 30 30 31 31 32 32 31 31
22 22 23 24 24 24 25 25 24 25 25 26 26 26 26 26 27 27 27 27 28 28 28 29 29 29 30 30 30 30 31 32 32 32 32 32 32 32
23 23 23 24 24 24 24 25 26 25 25 26 26 26 27 27 27 28 28 28 29 28 29 29 30 30 31 31 31 32 32 33 33 33 33 32 32 32
24 24 24 25 24 24 25 25 25 25 25 26 27 27 27 28 28 28 29 29 29 29 29 30 30 31 31 31 32 32 32 32 32 33 32 32 32 33
24 25 26 26 25 26 26 26 26 26 27 26 27 28 28 28 28 28 28 29 29 29 30 31 31 31 31 31 32 32 32 32 32 33 33 33 33 33
25 26 27 27 27 27 27 27 27 27 27 27 27 28 28 28 28 29 30 30 30 30 31 31 30 31 31 31 32 32 32 32 33 33 33 33 34 34
27 27 28 28 28 28 28 28 28 27 27 27 28 28 29 29 30 30 30 30 30 30 30 30 30 31 31 31 32 32 32 33 34 34 34 35 35 35
28 28 28 28 28 28 28 28 28 27 27 27 28 29 29 30 30 30 31 30 30 30 31 31 31 31 32 32 32 33 34 35 35 35 36 35 36 36
29 28 28 28 28 28 29 28 28 28 27 28 28 29 29 29 30 30 30 31 31 32 32 32 33 33 33 34 34 35 35 36 36 36 36 36 36 36
29 28 29 29 29 29 28 27 28 28 28 29 29 30 30 30 30 30 30 31 31 32 32 33 34 34 35 35 36 36 36 36 37 37 37 36 36 37
29 29 30 30 30 29 29 29 29 30 30 30 30 31 31 31 31 31 32 32 33 33 34 34 35 35 36 36 37 37 37 37 37 37 37 37 37 37
30 30 30 30 31 31 31 31 31 32 32 32 32 32 32 32 33 33 34 34 35 35 35 35 36 36 36 36 37 37 37 37 37 37 36 36 36 36
32 31 31 31 31 32 32 32 32 32 33 33 33 33 34 34 35 35 35 36 36 36 36 36 36 36 36 35 36 36 36 36 36 36 36 36 36 36
33 33 33 33 33 33 32 32 33 34 34 35 35 36 36 36 36 37 37 37 37 37 37 37 36 36 35 35 35 36 36 36 36 36 36 36 35 35
35 35 35 35 34 34 34 34 34 35 36 37 37 38 38 38 38 38 38 38 37 37 36 36 36 36 35 36 35 35 35 35 35 35 35 35 35 34
35 35 36 36 36 36 36 36 36 37 38 38 39 39 39 39 38 38 38 38 37 37 36 36 36 36 36 35 35 35 34 35 35 35 35 35 34 34
36 36 36 37 37 37 37 38 38 39 39 39 39 39 39 39 38 38 38 37 37 36 36 36 35 35 35 35 34 34 34 34 35 35 35 34 34 33
37 38 38 38 38 38 39 39 39 39 39 39 38 38 38 38 37 37 37 37 37 36 36 35 35 35 35 34 34 34 35 35 35 35 34 33 33 32

GEFSNE_500_meanwind_204.txt.gz
Wind_Speed
12 13 13 14 15 16 16 17 17 17 17 18 18 18 19 19 19 20 21 21 21 21 21 21 22 22 22 23 23 24 24 24 24 25 25 25 26 25
13 14 15 16 16 17 17 18 18 18 19 19 20 20 21 21 21 22 22 22 22 22 22 23 23 23 24 24 25 25 25 26 26 26 26 25 26 26
15 15 16 16 16 17 17 18 18 19 19 20 21 22 22 22 23 23 24 24 23 23 24 24 24 24 25 25 25 26 26 27 27 27 26 26 26 27
16 16 16 17 17 17 18 19 20 20 21 22 23 24 24 24 25 25 24 25 25 25 25 25 26 26 26 26 26 26 26 26 26 27 27 27 27 27
18 18 18 18 19 20 20 21 22 22 23 23 24 25 25 26 26 26 26 25 26 26 26 26 26 25 25 26 26 26 26 26 26 27 27 28 28 28
19 19 19 20 20 21 22 22 23 24 24 25 25 26 26 27 27 26 26 27 27 27 27 27 27 27 27 27 27 27 27 27 27 28 28 29 28 28
20 21 21 21 21 23 23 24 25 25 26 26 26 26 26 27 26 27 28 28 28 27 28 28 28 28 29 28 28 28 28 28 28 28 28 29 29 29
23 22 23 23 23 24 25 26 26 26 26 27 27 27 27 27 27 27 28 28 28 28 28 29 29 29 29 29 28 28 28 28 28 28 29 29 29 29
25 26 26 25 25 25 26 26 27 27 27 27 27 27 27 27 28 28 28 28 28 28 28 28 29 29 29 28 28 28 28 28 29 29 29 29 29 29
28 28 28 28 28 27 28 28 28 28 28 28 28 28 28 29 29 29 29 29 28 28 28 28 28 29 29 29 29 29 29 29 30 30 30 29 29 29
29 28 29 28 28 28 29 29 30 29 28 29 29 29 29 29 29 29 29 28 28 29 29 29 29 29 30 30 30 30 30 30 31 31 30 29 29 30
29 28 29 29 30 30 30 30 30 29 29 29 29 29 28 29 29 29 29 29 29 30 30 30 30 30 31 31 31 31 31 32 31 31 31 31 31 31
31 30 30 30 31 31 31 31 30 30 30 29 29 29 28 28 29 30 30 30 30 30 31 31 31 32 32 32 32 33 32 32 31 31 32 32 33 33
32 33 32 31 31 31 31 31 31 30 30 30 30 30 30 30 30 31 31 31 30 31 31 32 32 33 33 33 32 33 33 32 32 32 33 33 33 33
33 33 33 33 32 32 32 32 32 32 32 32 32 31 32 32 32 32 31 31 31 32 33 33 33 33 33 33 33 33 33 33 33 33 33 33 34 34
33 33 33 34 33 33 33 33 34 34 34 33 33 33 33 33 33 33 33 33 33 34 34 34 35 35 35 35 34 34 34 34 33 33 33 34 34 33
34 34 34 35 35 35 35 35 35 35 35 35 34 35 35 35 34 35 35 35 35 34 35 35 35 35 35 34 34 34 34 33 33 34 34 33 34 34
36 36 36 36 36 36 36 36 36 36 36 36 36 36 36 36 36 36 37 36 36 36 36 36 35 35 34 34 34 34 34 33 33 33 34 34 33 33
37 37 37 36 36 37 37 37 36 36 37 37 38 38 37 37 37 37 38 38 37 37 36 36 36 35 35 34 34 35 34 34 34 34 34 34 34 34
37 37 37 37 37 38 37 37 37 37 38 38 38 38 38 39 39 38 38 38 37 37 36 36 35 35 35 35 35 34 35 35 35 34 34 33 33 33
38 38 38 38 38 38 38 38 38 39 39 38 38 38 39 39 38 38 38 38 38 37 36 35 35 35 35 35 35 34 34 34 34 33 33 33 33 33
38 39 39 39 38 38 38 38 38 38 37 37 38 38 37 38 38 38 37 37 37 36 36 35 35 34 34 34 34 34 34 33 33 34 34 34 34 33
39 39 39 39 39 38 38 37 37 36 36 37 37 37 37 37 37 37 36 36 36 35 35 35 34 34 34 34 34 33 33 34 34 35 35 35 35 34

GEFSNE_500_meanwind_210.txt.gz
Wind_Speed
9 10 11 11 11 11 12 13 13 15 15 16 16 17 17 18 18 19 20 20 21 22 22 21 21 22 22 22 23 23 23 23 24 24 24 24 25 26
10 10 11 11 12 12 12 13 14 15 15 16 17 18 19 19 20 20 21 21 21 21 22 22 22 22 23 23 24 25 25 25 25 25 26 26 26 27
11 11 12 12 13 13 14 14 15 16 16 17 18 19 20 21 21 22 22 23 23 23 23 23 23 24 24 24 24 25 26 26 27 27 27 27 27 27
12 13 13 14 15 15 15 16 17 18 18 19 20 21 22 23 23 23 24 24 24 24 24 25 25 25 26 26 26 26 26 26 26 27 27 28 27 27
13 14 15 16 16 17 17 19 19 20 20 21 22 23 23 24 24 24 24 25 25 25 25 26 27 27 27 27 27 27 27 27 27 27 27 27 28 28
15 16 16 17 18 19 19 20 21 22 22 22 23 24 24 25 25 25 26 26 27 27 26 27 28 27 27 27 27 28 27 27 27 27 27 27 28 28
17 17 19 19 20 20 21 22 22 22 22 23 24 25 25 25 26 26 26 26 27 27 27 27 27 26 26 27 27 27 27 27 27 27 28 29 29 29
19 20 21 21 22 22 23 23 23 23 24 24 25 25 25 26 26 26 26 26 27 27 27 27 26 26 26 27 27 28 28 29 29 29 29 30 30 30
22 22 23 24 24 25 25 25 25 25 25 25 26 26 26 25 26 26 26 26 27 26 27 27 27 27 27 27 28 28 29 30 30 31 31 31 31 32
24 24 24 25 26 26 26 26 26 26 26 26 27 27 27 27 26 26 26 26 27 27 27 27 28 28 28 28 29 30 30 31 32 32 33 32 32 32
26 26 26 26 26 27 26 26 26 26 26 26 27 27 27 28 28 28 28 28 28 28 28 29 29 30 30 30 30 31 31 31 32 33 33 33 32 33
26 26 26 26 27 27 26 27 27 27 27 27 28 28 28 28 28 29 29 29 29 29 29 30 30 31 31 31 32 32 32 32 32 33 33 33 33 34
28 28 28 28 28 27 27 27 27 28 28 28 29 29 28 29 29 29 29 30 30 30 30 31 31 31 32 31 31 32 32 32 33 33 33 34 34 34
28 28 29 29 29 29 29 29 29 29 29 30 30 30 30 30 31 30 30 30 30 30 31 31 32 32 33 33 32 33 33 33 33 34 34 34 35 35
30 29 30 30 30 29 29 30 30 30 31 31 31 31 32 32 32 31 31 31 31 31 32 32 33 33 33 33 33 33 33 33 34 34 34 33 33 34
31 31 31 31 31 31 31 32 32 32 32 32 33 33 33 33 33 32 31 32 32 32 33 33 34 34 33 33 33 34 34 34 34 33 33 33 33 33
32 32 33 33 33 33 33 33 33 33 33 34 34 34 34 34 33 33 33 33 34 34 34 35 35 35 34 34 34 34 35 35 35 34 34 34 33 33
34 35 35 35 35 35 35 35 34 34 34 35 35 35 35 34 34 34 35 35 36 36 36 35 35 35 35 35 35 35 35 35 35 35 34 33 33 33
35 35 36 35 35 36 35 35 35 35 35 35 35 35 36 36 35 35 36 36 36 36 37 36 37 37 37 36 36 36 35 35 34 33 33 34 33 33
36 36 36 35 34 34 35 34 35 35 36 36 36 36 36 36 36 36 36 37 37 37 37 37 37 37 36 36 35 35 35 35 34 33 34 34 33 33
36 36 35 34 33 34 34 34 34 35 36 36 36 36 36 36 36 36 36 37 37 37 37 37 36 35 35 35 34 33 34 34 34 34 34 34 34 33
35 34 34 33 33 33 33 34 35 35 36 37 36 36 36 36 36 36 36 36 36 36 35 35 35 34 34 34 33 33 33 34 34 34 33 33 33 33
32 32 31 31 32 33 33 34 35 35 36 36 36 36 35 34 34 35 35 34 34 34 33 33 33 33 33 33 33 32 32 33 33 33 33 33 33 32

GEFSNE_500_meanwind_216.txt.gz
Wind_Speed
10 10 11 12 12 13 13 13 13 14 14 15 16 16 17 18 18 19 20 20 21 22 22 23 24 24 24 24 24 23 24 23 23 24 24 23 23 24
11 11 12 13 13 14 15 15 15 15 15 16 16 17 18 19 20 21 21 22 23 23 24 24 25 25 25 25 26 26 26 26 25 25 24 24 24 25
13 13 14 15 15 15 16 17 17 17 16 17 18 19 20 21 22 22 23 23 24 25 25 25 25 26 26 26 27 27 27 27 27 27 26 26 26 26
15 15 16 17 17 18 18 19 19 19 19 19 20 21 21 23 23 23 24 25 25 26 26 26 27 27 28 28 27 27 27 28 28 28 28 28 27 27
18 18 19 19 19 20 20 20 21 21 22 22 22 23 24 24 25 25 26 26 26 27 27 27 28 28 28 29 28 28 28 29 29 29 29 29 28 28
20 20 21 21 20 21 21 22 22 23 23 24 24 24 25 26 26 26 26 26 26 27 27 28 28 29 29 29 29 29 29 29 29 29 29 28 28 29
22 23 23 23 22 22 23 23 24 24 24 25 25 25 25 26 26 27 27 27 27 27 27 27 27 28 29 29 29 29 29 29 29 29 29 30 29 30
24 25 25 24 24 24 25 25 25 25 25 26 26 26 26 27 27 27 27 27 27 28 27 27 28 28 29 29 29 30 30 30 30 30 30 31 31 31
24 25 25 25 26 26 27 27 28 28 27 27 27 27 27 28 28 28 28 28 29 29 29 28 29 28 28 28 29 29 29 29 30 30 31 32 32 32
25 24 26 27 27 28 28 29 29 28 28 29 29 30 30 30 30 30 31 31 30 30 29 29 29 29 29 29 29 29 30 30 31 32 32 33 33 33
27 27 27 28 29 29 29 30 30 30 30 30 31 31 30 30 30 30 31 31 31 30 30 30 30 30 30 30 30 30 31 31 31 32 33 34 34 34
29 29 29 30 30 31 31 31 31 31 32 32 31 31 31 31 31 31 31 31 31 30 30 30 30 31 31 31 31 32 32 32 32 33 34 34 34 34
29 30 30 30 30 31 32 32 31 32 32 32 32 32 32 32 32 32 31 31 31 31 31 31 31 32 32 31 31 33 33 34 34 34 35 35 35 36
32 32 33 33 32 32 32 32 33 33 33 32 33 33 33 33 33 33 33 32 32 32 32 33 33 33 33 33 33 33 34 35 35 35 35 36 36 36
32 32 33 34 34 34 34 34 34 34 34 34 33 33 34 34 34 34 34 33 33 34 34 34 34 34 34 34 34 35 35 35 35 35 36 35 36 36
34 34 34 34 35 35 35 35 35 35 34 35 35 35 35 35 35 35 34 34 35 35 35 35 36 36 36 36 36 35 35 35 35 35 35 35 35 34
36 36 36 36 36 36 36 35 36 35 35 35 36 35 35 36 36 35 35 35 35 36 36 36 37 37 37 37 36 36 36 35 35 34 34 34 34 34
36 37 37 37 37 37 36 36 36 36 36 36 37 37 36 36 37 37 36 36 36 36 37 36 36 36 36 36 36 36 35 35 34 34 35 34 33 34
37 38 38 38 37 36 36 37 36 36 37 37 38 37 37 37 37 37 36 36 36 36 36 36 36 36 36 36 36 36 35 34 34 34 33 32 32 32
37 37 37 38 38 37 37 37 37 37 37 37 37 37 36 37 37 37 37 37 37 37 36 36 36 37 37 37 36 36 35 34 33 32 32 32 32 32
37 36 36 37 38 38 38 37 37 37 36 36 36 36 36 36 37 37 37 37 37 37 36 37 37 37 37 37 36 35 34 33 33 33 32 32 31 32
34 35 35 35 35 36 36 35 35 35 35 36 36 36 36 36 36 36 37 37 37 37 36 36 36 36 36 36 35 35 34 33 33 32 32 31 31 31
32 32 33 33 33 33 34 34 34 34 34 34 34 34 35 35 35 36 36 36 36 36 36 35 35 35 35 35 35 33 32 31 32 32 31 32 32 32

GEFSNE_500_meanwind_222.txt.gz
Wind_Speed
12 13 13 13 13 13 13 13 13 14 15 15 15 16 16 16 16 17 18 19 19 20 21 22 22 22 22 22 22 23 24 24 24 25 25 25 25 25
15 15 15 15 15 15 15 15 15 16 16 16 17 17 18 18 18 18 19 19 20 21 22 23 23 24 24 24 24 25 26 26 26 26 26 26 25 25
17 17 17 17 17 17 17 17 17 17 17 17 18 18 19 20 20 20 21 21 22 22 23 23 24 24 25 25 25 25 26 26 26 26 26 27 26 26
18 19 19 19 20 19 19 20 20 19 19 18 19 19 20 21 21 22 22 22 23 24 24 24 25 25 26 26 26 26 27 27 26 27 27 27 27 26
20 20 21 21 22 22 22 22 22 22 21 21 21 22 22 22 23 23 24 24 25 25 25 26 26 27 27 27 27 27 27 28 28 28 28 28 28 28
22 22 22 22 22 23 23 23 23 24 24 24 24 24 24 25 25 26 26 26 26 27 27 27 27 28 28 28 28 28 28 28 28 29 29 28 28 29
24 23 23 23 24 24 24 24 25 25 25 25 26 26 26 26 27 27 27 27 27 28 28 28 28 28 29 29 28 28 28 28 28 29 29 29 28 29
26 25 26 26 26 26 26 26 26 26 26 27 27 28 28 28 28 28 28 28 28 29 29 29 28 28 28 28 28 28 28 28 28 29 29 30 30 30
26 26 27 27 27 27 27 27 27 28 28 29 29 29 29 30 30 30 30 30 29 29 30 29 29 29 28 28 27 27 28 28 28 29 30 30 30 30
27 27 28 28 28 28 29 29 29 29 29 30 30 30 31 31 31 31 31 31 31 30 30 30 31 30 30 30 29 29 29 29 29 30 30 30 30 31
28 28 29 29 30 30 31 31 31 31 31 31 30 30 30 31 31 32 32 32 31 30 30 30 30 31 30 30 30 30 30 30 30 30 30 30 30 31
29 29 30 31 32 32 33 33 33 32 33 32 32 31 31 32 32 32 32 32 32 31 31 32 32 32 31 31 31 32 32 32 31 31 31 31 31 31
32 32 32 33 33 34 34 34 34 35 35 34 33 33 33 33 32 32 32 32 33 33 32 33 32 33 33 32 32 33 34 33 33 32 32 32 32 32
34 35 35 35 36 36 35 35 35 36 36 35 34 34 34 33 33 33 33 34 33 33 33 33 33 33 34 34 34 34 33 33 33 33 32 32 32 32
36 37 37 36 36 35 35 35 36 36 36 36 36 35 35 35 35 35 35 35 35 34 34 34 34 34 35 35 35 34 34 34 34 34 33 34 34 34
36 36 36 36 36 37 37 37 37 37 37 37 37 36 36 36 35 35 36 36 36 36 36 35 35 35 35 35 35 35 35 34 34 34 34 34 35 35
36 37 37 37 37 38 38 38 38 38 37 37 37 37 37 37 37 37 37 37 36 36 36 36 35 35 35 35 35 35 35 35 35 34 34 34 34 34
36 36 37 37 37 37 38 38 37 37 37 38 38 38 38 37 37 37 37 36 36 36 36 35 35 35 35 35 36 36 36 35 34 34 34 34 34 34
36 36 37 37 37 37 37 37 38 38 38 39 39 39 39 38 36 36 36 36 36 36 36 36 35 35 35 36 35 36 36 35 35 35 35 35 34 34
35 35 35 35 36 36 36 37 38 38 38 39 38 38 38 37 37 37 37 36 36 36 36 36 36 35 36 36 36 36 36 35 35 34 34 35 35 34
34 34 33 34 35 34 34 35 36 36 37 37 37 37 37 37 37 37 36 36 36 36 37 37 37 37 37 36 36 36 35 35 35 35 35 35 35 35
31 31 31 32 32 32 33 33 34 34 34 35 36 36 36 37 37 36 35 35 36 36 37 37 36 36 36 35 35 35 36 35 35 35 34 34 34 34
29 29 30 30 30 30 31 31 32 33 33 34 35 35 35 34 34 34 34 34 35 35 35 35 35 34 34 34 34 34 34 33 33 34 34 33 33 32

GEFSNE_500_meanwind_228.txt.gz
Wind_Speed
12 13 13 13 14 14 14 15 14 14 14 15 15 15 14 15 15 15 16 16 17 18 18 18 19 19 20 21 21 22 22 22 22 22 22 22 22 21
14 14 15 15 15 15 15 16 16 16 16 16 16 16 16 16 16 17 17 17 18 19 19 19 20 21 21 22 22 22 23 23 23 23 23 23 23 23
16 16 17 17 17 17 17 17 18 18 18 18 18 17 18 18 18 18 19 20 20 20 21 21 22 22 23 23 23 23 23 23 23 23 23 23 23 23
18 18 18 19 18 19 19 20 20 20 20 20 20 20 19 20 20 20 21 22 22 22 23 23 24 24 24 24 25 24 24 24 23 23 23 23 24 24
20 20 20 20 19 20 21 21 22 22 22 22 22 22 22 22 22 22 23 23 24 24 25 25 25 25 25 25 26 25 25 25 24 25 25 25 25 24
22 22 23 22 22 22 22 23 23 23 24 24 23 24 24 24 25 25 25 25 26 26 26 26 26 26 27 27 26 25 25 25 25 26 26 25 26 26
24 24 24 25 24 24 24 24 25 25 25 25 26 26 26 26 26 27 27 28 28 28 27 27 27 27 27 27 26 26 26 26 26 26 26 26 26 26
25 26 26 26 27 26 26 26 27 27 28 28 28 28 27 27 27 28 29 29 29 29 29 29 28 27 27 27 27 27 27 26 26 26 26 26 27 27
27 27 27 28 28 28 28 28 29 29 29 29 29 29 29 30 30 30 31 31 31 31 31 30 29 29 29 29 29 28 28 27 27 27 28 28 28 27
28 28 29 29 29 30 31 31 31 31 31 31 31 31 32 32 33 32 32 32 32 32 31 30 30 29 29 30 30 29 29 29 29 29 30 29 29 29
29 29 30 31 31 32 32 32 32 32 32 32 33 33 33 33 34 34 34 34 34 33 32 31 30 30 29 29 29 30 29 29 29 30 30 29 29 29
31 31 31 31 32 32 33 34 34 34 34 34 35 35 35 35 35 35 34 34 34 33 33 33 32 31 31 30 30 30 30 30 31 31 31 31 30 30
32 32 33 33 34 34 35 35 36 36 36 36 37 37 37 37 36 36 35 35 35 35 34 34 33 33 33 32 31 31 31 32 32 32 32 31 31 30
34 34 34 35 35 36 37 37 37 38 38 38 38 38 38 38 38 37 37 37 36 35 35 34 34 34 34 33 32 32 32 32 32 32 32 32 32 32
36 36 36 36 37 38 38 38 39 39 39 39 39 39 38 38 38 37 37 38 37 37 36 36 35 34 34 34 33 33 33 33 33 33 33 33 33 33
37 38 38 38 38 37 37 37 38 38 37 38 38 38 39 39 38 38 37 38 37 37 37 36 35 34 34 34 34 33 34 33 33 33 33 33 33 32
38 38 38 38 37 37 37 37 38 39 38 38 38 37 38 38 38 38 38 38 37 36 34 34 35 35 35 35 35 35 34 34 34 34 34 34 33 33
37 37 38 37 37 37 38 37 37 37 37 37 37 38 38 39 39 38 39 37 36 35 35 35 35 36 36 35 35 35 35 34 34 33 33 33 33 33
37 37 37 37 36 36 37 36 36 36 36 36 36 37 38 38 39 39 38 37 36 36 36 36 35 35 35 35 34 34 33 33 32 32 31 32 32 32
36 36 36 35 34 34 34 35 35 35 34 35 35 36 37 38 38 38 37 36 35 35 35 35 36 35 34 33 32 31 32 31 31 31 31 31 31 31
35 35 34 34 33 33 33 33 33 33 33 34 34 36 36 36 36 36 35 35 35 35 35 34 33 32 32 31 31 30 30 30 30 31 30 31 31 31
32 31 31 31 31 31 31 31 31 31 32 33 33 33 33 33 34 33 33 34 34 34 34 33 32 31 31 31 30 30 30 30 30 31 31 32 32 31
29 29 29 30 31 31 31 31 31 31 31 31 31 31 31 31 32 32 33 33 33 32 32 31 31 31 31 30 30 30 30 30 31 31 31 31 31 30

GEFSNE_500_meanwind_234.txt.gz
Wind_Speed
10 10 11 11 12 13 13 13 13 14 14 15 15 15 16 16 16 16 16 17 16 17 17 18 18 18 18 19 20 20 21 21 21 21 21 22 22 21
11 12 12 13 13 13 14 15 15 15 15 16 16 17 17 17 17 18 19 18 19 18 18 18 19 19 20 20 21 22 22 22 22 23 22 22 22 22
13 13 13 14 14 14 15 16 16 16 16 17 17 18 19 19 18 19 20 21 21 20 20 21 21 21 21 21 21 22 23 23 24 24 23 23 23 23
15 15 15 16 16 16 16 16 17 18 18 19 19 19 20 20 20 21 21 21 22 23 23 23 23 23 23 23 23 23 23 24 24 24 24 24 24 24
17 17 18 18 18 18 18 18 19 19 20 20 20 21 22 21 21 21 22 22 23 23 24 25 25 26 26 26 25 25 25 25 25 25 25 25 25 24
19 20 20 20 20 20 20 20 20 20 21 21 22 23 24 24 24 24 24 25 25 25 25 26 27 27 27 26 27 27 27 27 26 26 26 26 26 26
21 22 22 22 22 22 22 22 22 22 22 22 23 23 24 25 26 26 27 27 27 28 28 28 29 29 29 28 28 28 28 27 27 26 26 26 26 27
23 23 23 23 24 24 24 24 24 24 24 25 25 25 26 26 27 27 28 28 29 29 29 30 30 30 30 30 30 29 29 28 28 27 27 27 27 28
25 25 25 25 25 25 26 26 26 26 26 27 27 27 28 29 29 30 30 30 30 30 30 30 30 30 30 31 31 31 30 30 30 30 29 28 28 29
27 27 27 26 26 26 26 27 28 29 29 29 29 29 30 30 31 31 31 32 32 32 32 31 31 31 31 31 31 31 31 31 30 30 30 30 30 30
28 28 28 28 28 28 29 29 30 30 31 31 31 32 32 32 32 32 33 33 33 32 33 33 32 32 32 32 32 32 32 32 32 32 32 32 32 32
29 30 31 30 30 30 31 31 31 32 32 33 33 34 33 33 33 33 34 34 34 34 33 34 34 34 34 33 34 33 32 32 32 32 32 32 32 32
31 31 32 31 31 32 32 32 33 33 33 34 34 34 34 34 34 34 35 35 35 35 35 35 35 35 35 35 34 34 34 33 33 32 32 32 32 32
31 32 32 32 32 33 33 33 33 34 34 34 34 34 34 35 35 35 36 36 36 36 35 35 35 35 35 34 34 33 33 33 33 32 32 32 32 32
32 32 32 33 34 34 34 34 34 34 35 35 34 34 34 34 35 35 36 36 36 35 35 35 35 35 35 35 34 33 33 33 32 32 32 32 32 32
33 33 34 34 35 35 35 34 35 35 35 35 35 35 35 35 36 36 36 37 37 36 35 36 36 35 35 34 34 33 33 33 33 32 32 32 32 32
34 35 36 36 36 36 35 35 35 35 36 36 36 36 35 35 36 36 36 37 37 36 36 36 36 36 36 35 34 34 34 32 31 30 30 30 30 30
34 34 35 35 35 35 35 35 35 35 36 36 36 36 36 36 36 36 36 36 35 35 35 35 35 35 34 33 33 33 33 32 31 31 31 31 31 31
33 33 33 34 34 34 35 35 35 35 35 35 35 36 36 36 36 36 35 35 35 34 33 33 34 34 33 32 32 32 32 32 32 31 31 31 32 32
31 31 32 34 34 34 34 34 35 35 35 35 35 35 35 35 35 35 35 34 34 34 32 32 33 33 33 32 32 32 32 32 31 31 32 32 32 32
30 31 32 33 33 33 33 33 34 34 34 34 33 34 34 34 34 34 34 34 35 34 33 32 32 33 33 32 32 31 31 32 32 32 32 32 32 31
30 31 31 31 31 31 32 32 33 32 32 32 32 32 32 32 33 33 33 34 33 33 33 33 32 32 31 31 32 32 32 32 32 32 32 31 30 30
28 28 29 29 30 30 31 31 31 32 32 32 31 30 30 30 31 32 32 32 31 31 31 31 32 32 32 33 33 32 31 31 31 31 30 30 29 29

GEFSNE_500_meanwind_240.txt.gz
Wind_Speed
13 13 14 14 15 15 15 15 15 16 16 17 17 17 18 18 18 18 18 19 19 20 20 20 21 21 22 22 22 22 22 22 22 22 22 22 22 23
14 14 15 15 15 16 16 16 17 17 18 19 19 19 19 19 19 19 19 19 20 21 22 22 23 23 23 23 23 23 23 24 24 23 23 23 23 23
16 16 17 17 18 18 18 18 18 19 19 20 20 21 21 21 21 21 21 20 21 22 22 23 24 24 25 25 25 25 25 24 24 24 24 24 24 24
18 18 19 20 20 20 20 20 21 21 21 21 22 22 23 23 23 23 23 23 23 23 23 24 25 25 25 26 26 26 26 26 26 25 25 25 25 25
20 20 21 21 22 23 23 23 23 23 23 23 23 24 24 25 25 26 26 26 26 25 25 26 26 26 26 26 27 27 27 27 27 26 26 26 26 26
22 22 23 23 23 24 24 25 25 25 25 25 25 26 27 27 27 27 28 28 28 28 28 28 28 27 27 27 28 28 28 28 28 28 28 27 27 27
25 25 25 25 26 26 26 27 26 26 26 26 27 27 28 29 29 29 30 30 30 30 30 31 30 30 29 29 30 30 30 29 30 29 29 28 27 27
26 27 27 28 28 28 27 28 28 28 27 27 28 29 29 29 29 31 31 32 32 32 31 32 32 31 32 31 31 32 32 31 30 30 30 29 28 28
28 28 29 29 30 30 29 29 28 28 28 29 29 30 30 30 30 30 31 31 32 32 33 33 33 33 33 33 33 33 33 32 31 31 31 31 30 30
29 29 30 30 30 31 32 31 31 30 30 30 30 31 32 32 32 32 33 32 33 33 34 33 33 34 34 34 34 34 33 33 32 32 32 32 32 32
32 32 32 32 32 32 32 32 32 31 31 31 31 32 34 34 34 34 34 34 34 34 34 34 34 34 34 34 34 34 34 34 34 33 33 32 32 32
33 33 34 34 34 33 32 32 32 32 33 33 33 33 34 35 35 35 35 35 35 34 35 35 35 35 34 34 34 34 35 35 35 35 34 33 33 33
34 34 34 34 34 34 33 33 33 33 34 33 33 34 34 35 36 36 37 36 36 35 36 37 37 37 36 35 35 36 36 36 36 36 35 34 33 32
35 35 36 36 35 35 35 35 35 34 34 34 34 34 35 36 36 36 37 36 36 36 37 38 37 37 37 37 36 36 37 37 37 36 35 34 34 33
37 37 37 37 37 36 36 37 37 36 36 35 35 35 36 36 35 35 36 37 37 38 38 38 38 37 37 36 37 37 37 37 36 35 35 34 33 32
38 38 38 37 37 37 37 37 37 37 37 37 37 37 37 36 36 36 37 37 37 36 37 38 38 38 37 36 36 37 36 35 34 34 33 33 32 32
37 36 37 38 38 37 37 37 37 37 37 37 38 38 38 37 37 37 37 36 36 35 35 37 37 37 36 36 36 35 34 33 32 32 32 32 32 32
36 35 35 36 36 36 37 38 38 37 37 38 38 38 38 37 37 37 37 37 37 36 36 35 36 36 36 35 35 35 33 32 31 31 31 31 31 32
35 35 35 35 35 36 36 37 37 37 37 38 38 37 37 37 37 37 37 37 36 36 35 35 34 34 34 34 34 34 33 32 31 31 31 30 30 30
34 34 34 35 35 35 35 35 36 37 37 37 36 36 36 36 37 37 36 36 35 35 35 34 34 34 34 34 33 33 32 31 31 31 30 30 29 29
33 33 34 34 34 34 34 34 34 34 35 35 35 35 36 36 36 36 35 35 34 34 34 34 33 34 34 34 33 32 32 31 31 31 30 30 30 30
30 30 31 31 31 32 32 32 32 33 34 34 34 35 35 35 35 35 35 34 33 33 33 33 33 34 33 33 32 32 31 31 31 31 30 31 31 30
30 30 29 30 31 32 32 32 33 33 33 33 33 33 34 34 34 34 34 34 33 33 33 32 32 33 33 32 31 31 31 31 31 31 31 31 31 31

GEFSNE_500_meanwind_246.txt.gz
Wind_Speed
18 18 18 17 17 17 16 16 17 17 17 18 18 18 19 19 19 19 19 20 19 19 19 19 20 20 21 21 22 22 23 23 22 22 22 22 23 23
19 18 18 18 18 18 18 18 18 19 19 19 19 20 20 20 20 21 21 21 21 21 21 21 22 22 22 22 23 24 24 23 23 23 24 24 24 24
19 20 20 20 19 19 19 19 20 20 20 21 21 22 22 22 23 23 22 23 23 23 23 23 24 24 24 24 24 24 24 24 24 24 24 25 24 24
20 21 21 21 21 21 21 21 22 22 22 23 23 24 24 24 24 24 25 25 25 25 25 25 26 25 26 27 26 25 25 25 26 26 25 25 25 25
21 22 23 23 23 23 23 23 23 23 24 24 25 25 25 26 26 26 26 27 27 27 27 27 27 27 27 28 28 28 28 27 27 27 26 26 27 27
22 22 23 24 24 24 25 25 25 25 25 26 26 27 27 27 28 28 28 28 29 29 29 29 29 30 29 29 30 29 29 29 28 28 28 28 28 28
24 24 24 25 25 26 26 27 28 28 28 28 28 28 28 29 29 29 30 30 31 31 31 31 32 31 31 31 31 30 30 30 30 29 29 30 29 28
25 26 26 27 27 28 29 30 30 30 30 30 29 29 30 31 31 31 32 32 32 32 32 32 32 33 33 32 32 31 31 31 32 32 31 31 30 29
27 28 28 28 29 30 31 32 31 31 31 31 31 30 31 33 33 33 32 32 32 33 33 33 33 33 33 32 32 32 32 32 32 32 31 31 31 31
29 29 30 30 30 31 32 32 32 33 33 32 32 32 33 34 34 35 34 33 33 33 34 34 34 34 34 33 32 32 32 32 32 32 31 32 32 32
31 31 31 31 31 31 32 33 33 33 33 34 34 33 33 33 34 34 34 34 34 34 35 35 34 34 34 34 33 33 33 32 32 32 32 33 33 33
32 32 32 32 32 32 33 34 34 34 34 34 33 33 33 33 33 34 35 34 34 34 34 35 35 35 34 34 34 34 33 33 33 33 33 33 34 34
33 34 34 33 33 34 34 34 34 35 34 34 33 33 33 33 34 34 34 34 34 34 34 34 35 34 34 34 34 35 35 34 34 34 34 34 34 34
35 35 35 34 34 35 35 35 35 35 35 34 34 34 34 34 34 34 34 35 35 34 35 36 35 35 35 35 34 35 35 35 34 34 34 34 34 33
36 36 36 36 35 36 36 36 36 36 36 35 35 35 35 36 35 35 35 35 35 34 34 34 34 34 35 35 35 36 36 35 34 34 34 33 32 31
35 36 36 36 37 36 36 36 36 37 37 37 36 36 36 36 36 36 36 36 37 36 35 34 35 35 35 36 36 35 35 34 34 33 33 32 31 31
35 36 37 37 37 37 37 36 36 37 38 37 37 37 36 36 36 37 37 38 38 36 36 36 36 36 36 36 36 35 35 34 33 32 32 32 31 31
35 36 36 37 37 37 37 37 37 38 37 37 37 37 37 37 37 37 37 38 37 37 37 37 37 37 37 36 35 35 34 34 33 32 32 33 32 31
34 35 35 36 37 37 37 37 37 37 37 37 37 37 36 37 37 37 36 36 37 37 37 37 37 37 37 36 35 35 34 34 33 33 33 33 32 31
34 35 35 34 34 35 35 34 34 34 33 34 35 36 36 37 36 36 37 37 37 37 37 37 37 37 36 35 35 34 33 33 33 33 33 33 33 32
34 34 34 34 33 33 33 34 34 33 33 34 35 36 36 36 36 36 37 37 37 37 37 37 37 37 36 35 35 34 34 33 33 33 33 34 33 32
34 33 33 33 33 33 33 33 33 34 34 35 35 35 35 35 36 36 37 37 37 37 37 36 36 35 34 34 34 34 34 34 34 33 33 33 33 32
33 33 33 33 32 32 32 32 31 32 33 33 34 34 34 34 35 36 36 36 36 36 36 35 34 34 34 34 34 34 34 34 34 33 33 32 32 32

GEFSNE_500_meanwind_252.txt.gz
Wind_Speed
16 17 18 19 19 19 18 18 18 18 17 17 16 16 16 16 16 16 17 18 19 20 20 20 20 21 21 21 21 21 20 20 20 21 21 22 21 21
18 19 20 20 20 20 19 19 20 20 18 17 17 17 17 17 17 18 19 20 21 21 22 22 23 23 23 23 23 22 22 22 22 22 22 22 22 22
18 19 20 21 21 21 21 21 21 20 19 19 19 19 19 20 21 21 21 22 22 23 23 24 24 24 24 24 24 24 23 23 23 23 23 23 23 23
19 19 20 21 21 22 22 22 21 21 20 21 21 21 22 22 23 23 23 23 23 24 25 25 25 25 25 25 25 25 25 25 25 24 24 24 23 23
20 20 20 21 21 22 22 22 22 22 22 22 23 23 24 24 25 25 25 25 25 25 25 25 26 26 27 27 26 26 26 26 26 26 25 25 25 25
21 21 21 22 22 22 22 22 23 23 24 24 24 25 25 26 27 27 27 27 27 26 26 27 27 27 28 28 28 28 28 27 27 28 27 27 26 27
23 23 23 23 23 23 23 24 24 24 25 25 25 26 26 27 27 27 27 27 28 28 28 29 29 29 29 29 29 29 29 29 29 29 29 29 28 28
25 25 25 25 24 24 25 25 25 26 26 26 26 26 26 27 28 28 29 29 28 29 30 30 31 30 29 29 30 30 30 29 29 29 30 30 30 30
28 28 27 27 27 27 27 27 27 27 27 28 28 27 28 29 30 30 30 31 30 30 30 30 30 30 29 30 30 30 30 30 30 30 30 30 30 29
30 30 30 29 29 30 30 30 29 29 29 30 30 30 30 30 30 31 31 31 31 31 31 30 30 30 30 30 30 31 31 30 30 31 31 31 30 29
31 31 32 32 32 32 32 31 31 31 31 31 31 31 31 31 31 32 32 32 31 31 32 31 30 31 31 31 31 31 32 32 32 32 32 31 30 29
32 32 32 32 32 32 33 33 32 32 32 32 32 32 32 32 33 33 33 33 33 32 33 33 32 32 31 32 32 32 32 32 32 31 31 30 30 29
32 33 33 33 34 33 33 33 33 33 33 33 33 33 33 33 33 34 34 34 33 33 33 33 33 33 33 32 32 33 33 33 32 31 30 30 29 29
33 33 34 34 34 34 34 33 32 33 33 34 34 34 34 35 35 35 35 35 35 35 34 34 33 33 33 33 32 32 32 32 31 31 31 31 30 30
34 34 34 34 35 34 33 33 33 34 34 35 35 35 35 36 36 36 36 36 36 36 36 35 34 33 33 33 32 32 32 31 32 32 32 31 31 31
34 33 32 32 32 32 32 33 34 35 35 35 35 35 36 36 36 36 36 36 36 35 35 35 35 34 34 34 33 32 33 32 32 32 33 33 32 33
32 32 33 33 33 33 33 33 34 35 36 35 35 35 34 35 34 34 35 35 35 34 34 35 35 35 34 34 33 33 33 33 33 33 32 32 32 32
32 32 32 33 34 34 34 34 35 36 36 36 35 35 35 35 34 34 35 34 34 34 34 34 35 35 35 34 34 35 35 35 34 34 34 33 33 32
32 32 33 33 33 34 35 35 36 36 36 35 36 36 36 35 35 34 34 34 34 34 34 35 35 35 34 34 34 35 35 34 34 34 34 34 34 33
33 33 34 33 34 35 35 35 35 35 35 35 35 35 35 36 36 35 35 34 34 35 34 35 35 35 35 34 33 33 33 33 33 33 33 33 33 33
34 34 33 34 34 34 34 35 35 35 34 35 36 36 36 36 36 35 35 34 34 35 35 34 35 35 35 35 34 33 32 33 33 32 32 32 33 33
34 33 33 32 33 33 32 33 34 34 34 35 35 36 36 36 36 35 35 35 35 35 35 35 36 36 36 35 34 34 33 33 32 31 31 32 32 32
32 33 32 32 32 33 33 33 33 34 35 36 36 36 35 35 34 34 35 35 35 35 35 35 35 35 35 35 34 34 34 33 32 32 31 31 31 31

GEFSNE_500_meanwind_258.txt.gz
Wind_Speed
13 13 13 13 14 15 15 16 16 16 16 16 17 16 16 16 17 18 18 19 20 20 20 20 20 20 20 21 21 22 22 22 22 21 21 21 21 21
14 14 14 14 14 15 16 16 17 17 17 17 17 18 18 18 19 19 19 20 20 21 21 21 22 22 23 23 23 23 24 24 24 24 24 23 23 23
15 16 16 16 17 17 17 17 18 18 18 18 18 19 20 20 20 20 21 21 22 22 22 23 23 24 24 24 25 25 26 26 25 26 26 26 25 24
17 18 18 19 19 19 19 19 19 20 20 21 21 21 22 22 22 21 22 22 23 24 24 24 25 25 25 25 26 26 26 27 26 27 27 27 27 26
19 19 20 21 21 22 21 21 21 21 22 22 23 23 23 23 22 22 23 23 24 25 25 26 26 26 27 27 27 27 27 28 28 29 29 29 28 27
21 20 21 22 23 23 23 23 23 23 23 24 24 24 24 24 24 24 24 25 25 26 26 27 27 28 27 28 28 28 28 29 30 31 31 30 29 29
22 22 22 23 23 24 23 24 24 24 24 24 24 24 24 25 24 24 25 25 26 27 27 28 28 28 28 28 28 29 29 30 30 31 31 31 30 30
25 25 26 26 26 26 25 25 25 24 24 24 24 24 24 25 25 25 25 26 27 28 28 28 28 29 29 29 29 30 30 30 31 31 31 31 31 31
28 28 28 28 28 28 27 27 26 26 25 25 25 25 26 26 27 27 27 28 28 28 28 28 29 29 30 30 31 31 31 31 31 31 31 31 31 31
30 30 30 30 30 30 29 28 28 27 27 27 26 27 27 27 28 28 29 29 29 29 29 29 29 30 30 31 31 31 31 31 31 32 31 31 31 31
31 31 31 32 32 32 31 30 30 29 29 28 28 28 28 28 28 29 29 29 30 30 31 31 30 31 31 31 31 32 32 32 32 32 32 32 32 32
32 32 33 33 33 32 31 30 30 30 30 29 29 29 29 29 30 30 30 30 30 31 32 32 32 32 32 31 32 32 32 32 32 32 33 33 33 33
34 33 33 33 32 32 32 31 30 29 29 30 30 30 29 29 30 31 31 31 32 32 32 33 33 33 32 31 32 32 32 32 32 32 32 33 33 33
34 33 33 32 32 32 32 31 30 30 30 30 30 30 31 31 31 32 32 32 33 33 33 34 34 33 33 32 31 32 32 32 33 33 33 33 34 33
34 34 33 32 32 32 31 31 31 31 31 31 31 31 32 32 32 32 32 33 33 33 33 33 33 33 34 34 34 33 33 33 33 32 32 33 33 33
34 33 33 33 34 33 31 31 31 32 32 33 33 33 33 33 33 33 33 32 32 33 33 33 33 33 33 33 33 33 32 32 32 32 32 32 32 32
32 32 32 32 33 33 33 33 33 34 34 34 34 35 34 34 34 34 33 33 33 33 33 33 34 33 33 33 32 32 31 31 30 30 31 31 31 31
32 31 32 32 32 33 33 33 34 34 34 35 35 35 34 34 34 35 34 34 34 33 33 33 33 33 33 32 32 31 31 31 31 31 31 32 32 33
31 31 31 31 32 32 32 32 32 33 33 34 34 35 34 34 34 35 34 34 34 34 34 34 33 32 32 31 31 31 31 31 32 32 32 32 32 33
30 30 30 31 31 31 31 31 31 32 33 34 34 34 34 34 34 34 34 34 34 34 34 33 33 33 32 31 31 32 32 32 32 33 33 33 33 33
30 31 31 31 31 30 30 30 31 31 32 33 34 34 34 35 34 34 34 34 34 33 34 33 33 32 32 33 33 32 32 33 33 33 33 33 33 33
30 30 31 32 31 30 30 30 31 31 31 33 34 34 34 34 34 34 33 34 34 34 33 32 32 31 32 33 33 33 33 33 33 33 34 34 34 33
29 29 30 30 30 29 30 30 31 32 32 32 32 33 33 33 33 34 33 33 33 32 32 32 32 33 33 33 33 33 33 34 34 35 34 34 34 33

GEFSNE_500_meanwind_264.txt.gz
Wind_Speed
16 16 15 15 15 15 16 17 17 17 18 18 19 18 18 19 19 19 19 19 19 19 20 21 22 22 23 23 24 24 23 24 24 24 25 24 24 24
17 17 16 17 17 18 18 19 19 20 20 21 21 20 20 20 21 21 21 21 21 21 21 23 24 24 24 24 25 25 25 26 26 25 25 25 25 25
19 19 18 18 19 19 19 20 21 21 22 22 23 23 23 23 23 24 24 23 24 23 24 24 25 26 26 26 26 26 26 27 27 26 26 26 26 26
21 20 20 20 21 21 21 22 22 23 23 24 24 25 25 25 25 25 25 25 26 25 26 26 27 27 27 27 27 27 28 28 28 28 28 27 28 28
22 22 21 21 21 22 22 23 23 24 24 24 25 26 26 26 26 26 27 27 27 27 28 28 28 28 29 29 29 29 29 29 29 30 30 29 29 29
22 22 22 23 23 23 24 24 24 25 25 25 25 26 26 27 27 28 29 29 29 29 29 29 29 29 29 29 30 30 30 30 30 30 30 30 30 30
24 24 24 25 25 26 26 26 27 27 27 26 26 27 28 28 28 29 30 30 31 31 30 30 30 30 30 30 31 31 31 31 31 31 31 31 31 31
26 26 27 27 28 28 29 29 30 29 29 28 28 28 29 30 30 30 30 30 30 31 31 31 31 30 31 31 31 31 32 32 32 32 31 31 31 31
28 28 29 30 31 31 31 32 31 31 31 30 30 30 30 30 30 30 30 30 29 29 30 30 31 31 31 32 31 31 31 31 32 32 32 32 32 32
30 30 31 32 32 33 33 33 33 33 32 31 31 31 31 31 31 30 30 31 30 30 30 29 30 31 31 31 32 32 32 33 33 33 33 33 32 32
32 32 33 33 33 34 35 34 33 32 32 32 32 32 33 33 32 32 32 31 31 30 30 30 30 31 32 32 32 32 32 33 33 33 33 33 32 32
33 34 34 34 35 35 35 34 33 33 32 32 32 33 33 33 33 33 33 33 32 31 30 30 30 31 31 31 32 32 32 32 32 32 32 32 31 32
34 34 34 34 34 35 35 35 34 34 33 33 34 34 34 34 34 33 34 33 33 32 31 31 31 31 32 31 32 32 33 33 33 33 33 33 33 32
33 33 34 34 34 34 33 34 34 34 34 35 34 34 35 35 34 34 34 34 33 33 33 33 32 32 32 32 32 33 33 34 34 34 34 34 33 32
33 33 32 32 33 33 33 34 34 34 34 34 34 34 35 35 35 35 34 34 34 34 33 33 33 33 33 33 33 33 33 33 34 34 34 33 33 32
33 33 32 32 32 32 33 33 33 33 33 34 34 34 34 34 34 34 34 34 34 34 34 34 34 33 33 33 33 33 33 33 33 33 34 33 33 32
33 32 32 32 32 32 33 34 33 33 33 33 34 34 34 34 34 34 34 34 34 34 34 34 34 34 34 34 33 33 32 32 33 33 33 33 33 33
32 31 31 32 32 32 33 32 33 33 33 33 33 34 34 34 33 33 34 33 33 34 34 33 33 34 34 34 34 33 33 32 32 32 32 32 32 32
31 32 32 32 32 32 33 33 33 33 33 33 33 34 34 33 33 33 33 33 33 33 33 33 33 33 33 32 32 33 33 33 33 33 32 32 31 31
32 32 32 33 33 32 32 33 33 33 33 33 33 33 33 32 32 32 32 33 33 33 33 34 33 33 32 32 31 31 32 33 33 33 33 32 32 32
31 31 31 31 31 32 32 32 33 33 32 32 32 32 32 32 32 32 32 33 33 33 33 33 33 33 33 33 33 33 33 33 34 33 32 32 32 32
29 29 29 29 30 31 31 31 31 31 31 31 31 31 32 32 32 32 33 33 33 33 32 32 32 33 33 33 34 33 33 33 34 33 32 32 32 32
28 28 28 28 28 29 29 29 29 29 30 30 30 31 31 31 31 31 31 32 32 33 32 32 32 32 32 33 33 33 33 33 31 31 31 32 32 32

GEFSNE_500_meanwind_270.txt.gz
Wind_Speed
15 16 16 16 16 17 17 17 18 18 19 20 20 20 20 20 20 21 20 20 21 20 21 21 21 21 21 22 23 23 23 23 23 24 25 25 25 25
17 18 18 18 18 18 19 19 20 20 21 21 22 22 22 22 22 22 22 22 22 23 22 22 22 23 23 23 24 24 24 24 24 25 26 26 25 26
19 20 20 20 20 21 21 22 22 22 22 22 23 23 23 23 24 24 23 23 24 24 24 23 23 24 25 25 26 26 26 26 26 26 27 26 26 26
21 21 21 21 21 22 22 23 23 23 23 23 24 25 25 25 25 25 26 26 26 25 26 26 26 26 27 27 27 27 27 27 27 27 27 27 27 27
23 23 22 23 23 23 23 23 23 24 24 25 25 26 27 27 27 27 27 28 28 27 27 27 28 28 28 28 28 28 28 28 28 29 29 29 28 27
25 25 26 26 26 26 25 25 25 25 25 26 26 27 27 27 28 28 29 28 29 28 28 28 29 29 29 29 28 29 29 29 29 30 30 30 29 28
26 27 27 26 27 27 27 26 26 27 27 27 27 28 28 29 29 30 30 29 29 29 28 29 29 30 29 29 29 29 30 30 30 31 30 30 30 29
28 28 28 28 28 28 28 28 28 28 28 28 29 29 30 30 30 31 30 30 30 30 29 29 29 29 29 29 29 29 30 30 30 30 30 30 30 30
29 29 29 29 29 30 30 30 30 30 31 31 31 31 31 31 31 31 31 30 31 31 31 30 30 29 29 29 30 30 30 30 30 30 29 30 30 29
30 30 31 31 31 31 31 31 31 32 32 32 32 32 33 32 32 32 32 32 31 32 31 31 31 31 31 30 30 30 29 30 30 30 30 29 29 29
32 32 32 32 32 32 32 33 33 32 32 33 33 33 33 33 32 33 33 33 32 32 32 32 32 32 32 31 31 31 30 29 29 29 29 30 30 31
33 33 33 33 33 34 34 34 33 33 34 34 34 33 34 34 34 34 34 33 33 33 33 33 33 32 32 32 32 31 31 30 30 30 30 30 30 30
34 34 33 33 33 33 34 33 33 34 34 34 34 34 34 34 35 35 34 34 33 33 33 33 32 32 32 32 32 32 32 31 31 30 30 30 30 30
34 34 34 34 33 33 33 33 33 34 34 34 34 33 33 33 34 34 34 34 34 33 32 32 32 32 33 33 32 32 32 31 31 31 31 31 31 30
34 33 33 33 33 33 33 33 34 34 34 34 33 33 33 33 33 34 35 35 35 34 33 33 33 33 32 32 32 32 31 30 30 30 31 30 31 31
33 33 33 33 34 34 33 33 33 33 33 33 32 33 33 34 34 34 35 35 34 34 34 34 33 33 33 33 32 32 32 31 30 30 30 30 31 30
33 33 34 34 34 34 33 33 32 32 32 32 32 32 33 34 34 34 34 34 34 34 34 34 34 34 33 33 33 32 32 31 30 29 30 30 31 31
34 34 34 35 35 33 32 32 31 31 31 32 32 32 32 33 33 33 33 34 34 34 34 33 34 34 33 33 33 32 32 31 31 30 31 31 31 30
33 33 33 33 32 31 31 30 30 30 30 31 31 31 32 32 32 32 32 33 33 33 33 33 33 34 33 33 33 32 32 32 33 32 32 31 30 30
33 32 32 31 31 30 29 29 29 29 29 29 30 30 31 31 32 32 31 31 32 32 32 32 32 32 32 32 31 32 32 32 33 32 32 31 30 30
31 31 30 29 29 28 28 28 28 28 28 28 29 29 29 30 30 31 31 31 31 31 31 31 31 32 32 32 32 32 32 32 31 31 31 31 30 30
29 29 29 28 28 27 27 28 28 28 28 29 29 28 29 29 30 30 31 30 30 30 31 31 31 31 32 32 32 31 31 31 31 31 31 31 31 30
27 27 27 27 28 27 27 27 28 28 28 29 29 29 29 30 30 29 29 29 29 30 31 31 31 31 31 31 31 31 31 31 31 31 31 30 30 31

GEFSNE_500_meanwind_276.txt.gz
Wind_Speed
15 15 15 16 16 17 17 17 17 17 17 17 17 17 18 18 17 18 19 19 19 19 19 19 20 21 21 22 23 23 23 23 23 23 24 24 24 24
17 17 18 18 18 19 19 19 19 19 18 18 18 19 19 19 19 20 21 21 21 21 21 21 22 22 22 23 24 24 25 25 24 24 24 25 24 24
20 20 21 21 21 21 21 21 21 20 20 20 20 20 20 21 21 22 22 22 23 23 23 23 23 24 24 24 25 25 25 25 25 25 25 25 25 24
22 22 23 23 22 22 23 23 23 23 23 22 22 22 22 23 23 24 24 24 24 24 24 25 25 26 25 26 26 26 26 25 25 25 25 25 24 24
23 24 24 24 24 24 24 24 24 25 25 24 23 24 24 24 25 26 26 26 26 26 26 26 27 27 27 28 28 27 27 27 26 26 26 26 25 25
25 25 25 25 26 26 26 26 26 26 26 26 26 25 25 26 27 27 28 28 28 28 28 28 28 28 28 28 28 28 27 27 27 26 26 26 26 26
26 27 27 27 27 28 27 27 27 28 28 27 27 27 27 28 28 28 28 28 28 28 28 28 28 28 28 28 28 28 28 28 28 28 28 27 27 26
28 28 28 29 29 29 28 28 28 28 28 29 29 29 29 30 30 29 30 29 29 29 30 29 28 28 28 28 28 28 28 28 28 28 28 28 28 28
29 29 30 30 30 29 29 29 29 30 30 30 30 30 31 31 31 31 31 31 30 30 30 30 29 29 28 28 28 27 27 28 28 28 28 28 28 28
31 31 31 31 31 30 30 30 30 30 31 31 32 32 32 32 32 33 32 32 31 31 31 30 29 28 29 28 28 27 27 27 27 28 28 28 28 28
32 33 33 33 32 32 32 32 32 32 32 33 33 33 33 33 32 33 32 32 31 31 31 30 29 28 28 28 28 28 27 27 27 27 27 27 27 27
34 34 34 34 33 32 33 33 33 33 33 33 33 32 32 32 32 33 33 32 32 31 30 30 30 29 29 29 29 28 28 27 27 26 26 26 26 26
34 34 34 34 34 34 34 33 33 33 33 33 32 32 31 31 32 32 32 32 32 31 31 31 31 31 30 29 29 29 28 28 28 27 27 27 26 26
35 34 34 34 35 35 34 34 33 33 33 32 32 32 31 30 31 31 31 32 31 32 32 32 31 31 31 31 30 29 29 29 29 28 28 28 28 27
34 34 34 34 35 34 33 32 33 32 33 32 32 32 32 32 32 31 31 31 31 31 31 31 32 31 31 31 31 30 29 29 29 28 27 28 28 28
35 34 34 33 32 33 32 32 31 31 31 31 31 32 32 32 31 31 31 31 31 31 31 31 31 31 31 31 30 29 29 28 28 28 28 28 28 28
33 33 32 32 32 31 31 31 31 30 29 29 30 31 32 32 31 31 31 30 31 31 31 31 30 30 30 30 29 28 28 28 29 29 28 28 28 28
32 31 31 32 31 31 30 30 30 29 29 29 30 31 31 31 30 30 29 29 29 30 30 30 30 30 30 29 29 29 28 28 28 29 29 29 29 29
32 31 31 31 30 30 30 30 29 29 29 30 30 29 29 30 29 28 28 29 29 30 30 30 30 30 30 30 29 29 29 29 29 29 29 29 29 28
31 30 30 30 30 30 30 30 29 29 28 29 29 29 28 28 28 28 28 28 28 29 29 30 30 30 30 30 30 30 30 30 30 30 30 29 29 29
29 28 29 29 29 29 29 29 28 28 28 28 28 28 28 28 29 29 28 28 29 29 29 29 29 30 30 31 31 31 31 31 31 30 30 30 29 28
27 27 27 27 28 28 28 28 27 28 28 28 28 29 29 30 30 30 30 29 29 29 30 31 31 31 32 31 31 31 31 30 30 29 29 29 29 28
26 26 25 26 26 26 26 27 27 27 28 28 28 28 29 29 30 30 30 30 30 31 31 31 31 32 32 32 32 31 30 29 28 28 29 28 28 29